map of SUA home
SUA - Airport
Location
City:  Stuart, Florida, United States
Name:Witham Field
ICAO:KSUA
IATA:SUA
FAA LID:SUA

Details
Type:Airport (Airfield)
Use:Public/Civil
Latitude:2710'54"N (27.181694)
Longitude:8013'17"W (-80.221305)
Datum:WGS 1984
Elevation:16 ft (5 m)
Variation:6.89W (WMM2015 magnetic declination)
-0.09 annual change
Runways:3
Longest:5828 × 100 ft (1776 × 30.5 m), paved

Time
Time Zone:UTC-5 (DST-4)
Local Time:

Weather
METAR:KSUA 140047Z 00000KT 7SM SKC 13/07 A3010
TAF:KSUA 132327Z 1400/1424 29004KT P6SM SKC
FM141500 26008KT P6SM SKC

Related Locations
Nearby:
Farthest:USL: 11602 mi / 18671 km
Useless Loop, WA, AU

Find:

   beyond  
but within

Other Information
Maps:
NOTAMs:
Links:
Sources:

  
flag of United States
flag of Florida
  

Airport Diagram

Airport diagram for SUA

Airport diagram PDF

Sectional Chart

Flight Planning
at skyvector.com

Satellite Image

Google Maps Satellite view

 

Copyright © 2004-2017 Karl L. Swartz. All rights reserved.
The Great Circle Mapper name and logo are trademarks of the Great Circle Mapper.
All other trademarks mentioned herein belong to their respective owners.
Please see credits for attibutions and further copyright information.

  Follow gcmap on Facebook Follow gcmap on Twitter Follow gcmap on Google+ GCmap on LinkedIn

hCard Microformat

Geo Microformat